Regional Weather Roundup
Issued by NWS

Home | Current Version | Previous Version | Graphics & Text | Print | Product List | Glossary On
Versions: 1 2 3 4 5 6 7 8 9 10 11 12 13 14 15 16 17 18 19 20 21 22 23 24 25 26 27 28 29 30 31 32 33 34 35 36 37 38 39 40 41 42 43 44 45 46 47 48 49 50
000
ASUS43 KMPX 152101
RWRMN
WEATHER ROUNDUP FOR MINNESOTA
NATIONAL WEATHER SERVICE TWIN CITIES/CHANHASSEN MN
300 PM CST SUN JAN 15 2017


NOTE: "FAIR" INDICATES FEW OR NO CLOUDS BELOW 12,000 FEET WITH NO
SIGNIFICANT WEATHER AND/OR OBSTRUCTIONS TO VISIBILITY. N/A MEANS
CURRENT SKY AND/OR WEATHER CONDITIONS ARE NOT AVAILABLE.

MNZ060>063-068>070-152200-
   Twin Cities Metro

CITY           SKY/WX    TMP DP  RH WIND       PRES   REMARKS
TWIN CITIES    MOSUNNY   33  19  56 SW12      30.23F WCI  24
ST PAUL        SUNNY     27  18  69 SE9       30.26F WCI  18
CRYSTAL        SUNNY     31  17  56 S6        30.22S WCI  25
BLAINE         SUNNY     34  19  55 S13       30.22F WCI  25
LAKEVILLE      SUNNY     30  21  69 S6        30.22F WCI  24
EDEN PRAIRIE   SUNNY     31  20  63 SW10      30.22S WCI  22
SOUTH ST PAUL  SUNNY     29  18  62 SE6       30.24F WCI  23
LAKE ELMO      FAIR      28  19  69 S8        30.24F WCI  20
$$
MNZ001>005-007-008-013>017-022>024-027-028-152200-
   Northwest Minnesota

CITY           SKY/WX    TMP DP  RH WIND       PRES   REMARKS
BEMIDJI        SUNNY     31  18  57 SW6       30.04F WCI  25
HALLOCK        CLOUDY    12   7  79 S16       29.98F WCI  -4
ROSEAU         CLOUDY    19  10  68 S13       29.97F WCI   7
WARROAD        SUNNY     23  10  58 SW16      29.96S WCI  10
THIEF RVR FALL CLOUDY    17  10  74 S15       30.04F WCI   2
CROOKSTON      CLOUDY    16  10  79 S15       30.06F WCI   1
FOSSTON        SUNNY     21  12  68 S15       30.07S WCI   8
DETROIT LAKES  SUNNY     27  19  74 SW10      30.10F WCI  17
MOORHEAD       CLOUDY    18  12  79 S10       30.12S WCI   6
PARK RAPIDS    SUNNY     25  16  68 SW5       30.08F WCI  19
MAHNOMEN       FAIR      21  15  78 S12       30.08F WCI   9
$$
MNZ006-009>011-018-025>026-152200-
   North Central Minnesota

CITY           SKY/WX    TMP DP  RH WIND       PRES   REMARKS
BAUDETTE       SUNNY     27  10  49 S10       29.96F WCI  17
FLAG ISLAND    SUNNY     21  10  63 S10       29.94F WCI  10
INTL FALLS     SUNNY     31  12  45 SW10      29.98F WCI  22
WASKISH        SUNNY     28  16  59 SW7       30.02F WCI  21
BIG FORK       SUNNY     30  16  55 S10       30.05S WCI  21
LONGVILLE      SUNNY     32  16  51 S5        30.09F WCI  27
GRAND RAPIDS   SUNNY     33  13  43 S6        30.10F WCI  28
CRANE LAKE     SUNNY     30  10  43 S6        30.04F WCI  24
ORR            SUNNY     30  10  43 S7        30.01F WCI  23
COOK           SUNNY     30  14  51 SW8       30.05F WCI  23
WALKER         FAIR      30  17  56 SW8       30.07S WCI  23
$$
MNZ012-019>021-037-152200-
   Northeast Minnesota

CITY           SKY/WX    TMP DP  RH WIND       PRES   REMARKS
DULUTH         SUNNY     28  11  48 SW13      30.11F WCI  17
ELY            SUNNY     30  12  47 SW12G20   30.04S WCI  21
HIBBING        SUNNY     30  11  45 VRB7      30.07F WCI  23
EVELETH        SUNNY     32   8  37 SW8       30.08F WCI  25
DULUTH HARBOR  SUNNY     30  12  47 CALM      30.16F
TWO HARBORS    SUNNY     30  16  55 S9        30.10S WCI  22
SILVER BAY     SUNNY     30  16  55 SW8       30.08S WCI  23
GRAND MARAIS     N/A     33  27  78 W23G31    30.08F WCI  21
G MARAIS ARPRT SUNNY     28  18  64 S6        30.02S WCI  22
$$
MNZ029>031-032-039>041-046>048-054>057-064-152200-
   West Central Minnesota

CITY           SKY/WX    TMP DP  RH WIND       PRES   REMARKS
FERGUS FALLS   SUNNY     21  16  79 S6        30.17F WCI  14
WHEATON        SUNNY     30  25  80 SE8       30.13F WCI  23
MORRIS         SUNNY     25  19  80 SE13      30.12F WCI  13
ALEXANDRIA     SUNNY     26  18  71 S8        30.12F WCI  18
ELBOW LAKE     FAIR      23  18  80 S9        30.13S HAZE    WCI  13
WADENA         SUNNY     30  18  59 SW3       30.11S
GLENWOOD       SUNNY     27  19  74 S8        30.13F WCI  18
APPLETON       SUNNY     28  18  64 S6        30.15F WCI  22
ORTONVILLE     SUNNY     27  18  69 CALM      30.12F
MADISON        CLOUDY    32  23  69 SE5       30.15S WCI  27
WILLMAR        FAIR      25  19  80 CALM      30.19F
$$
MNZ033>034-036-042>043-049>051-058-059-152200-
   Central Minnesota

CITY           SKY/WX    TMP DP  RH WIND       PRES   REMARKS
ST CLOUD       SUNNY     29  19  66 S9        30.18S WCI  20
SAUK CENTRE    FAIR      27  19  72 S5        30.15F WCI  22
PAYNESVILLE    SUNNY     28  19  69 S6        30.17F WCI  21
AITKIN         SUNNY     34   9  35 SW8       30.13R WCI  27
PINE RIVER     SUNNY     32  18  55 S8        30.14S WCI  25
BRAINERD       SUNNY     26  13  57 S9        30.14S WCI  17
STAPLES        SUNNY     30  16  55 SW5       30.12F WCI  25
LONG PRAIRIE   FAIR      28  19  69 S10G16    30.14F WCI  19
LITTLE FALLS   SUNNY     28  18  64 S7        30.16F WCI  21
LITCHFIELD     SUNNY     28  21  74 CALM      30.19F
BUFFALO        SUNNY     30  19  63 S6        30.21F WCI  24
MAPLE LAKE     SUNNY     31  21  66 S5        30.21S WCI  26
HUTCHINSON     CLOUDY    30  24  76 SE3       30.21F
$$
MNZ037-044-045-052-053-152200-
   East Central Minnesota

CITY           SKY/WX    TMP DP  RH WIND       PRES   REMARKS
PRINCETON      SUNNY     32  18  55 S7        30.20S WCI  26
MORA           SUNNY     28  14  54 S5        30.22R WCI  23
CAMBRIDGE      SUNNY     32  19  59 S3        30.19S
RUSH CITY      SUNNY     30  16  55 S7        30.22S WCI  23
MOOSE LAKE     SUNNY     28   9  43 S7        30.15S WCI  21
HINCKLEY       FAIR      27  14  59 S7        30.20F WCI  19
CLOQUET        SUNNY     27   9  46 S8        30.13S WCI  18
MCGREGOR       SUNNY     30  14  51 S7        30.14S WCI  23
$$
MNZ071>073-080-081-089-090-097-098-152200-
   Southwest Minnesota

CITY           SKY/WX    TMP DP  RH WIND       PRES   REMARKS
MONTEVIDEO     SUNNY     36  25  64 CALM      30.18S
GRANITE FALLS  SUNNY     32  24  73 S9        30.18F WCI  24
CANBY          CLOUDY    34  22  61 SW9       30.15F WCI  27
MARSHALL       SUNNY     33  22  63 VRB3      30.16R
REDWOOD FALLS  SUNNY     32  23  69 S6        30.18F WCI  26
OLIVIA         SUNNY     32  25  74 S7        30.17F WCI  26
PIPESTONE      SUNNY     30  23  74 S12       30.13F WCI  21
WINDOM         SUNNY     36  23  60 S10       30.17S
WORTHINGTON    SUNNY     35  21  56 S9        30.17  WCI  28
JACKSON        SUNNY     32  21  64 S12       30.19F WCI  23
TRACY          SUNNY     34  24  66 SW17G24   30.14S WCI  23
SLAYTON        SUNNY     32  23  69 SW14      30.17F WCI  22
$$
MNZ065>067-074>077-082>085-091>093-152200-
   South Central Minnesota

CITY           SKY/WX    TMP DP  RH WIND       PRES   REMARKS
MANKATO        SUNNY     33  22  63 S8        30.23S WCI  26
NEW ULM        SUNNY     34  23  64 S7        30.20S WCI  28
ST JAMES       SUNNY     34  23  64 S12       30.21F WCI  25
FAIRMONT       SUNNY     34  22  61 S10       30.21F WCI  26
GLENCOE        SUNNY     32  26  78 S5        30.20F WCI  28
FARIBAULT      SUNNY     34  21  60 SW7       30.24S WCI  28
OWATONNA       SUNNY     32  21  64 S13       30.23S WCI  22
WASECA         SUNNY     32  25  74 S9        30.24S WCI  24
ALBERT LEA     SUNNY     30  18  59 S7        30.23S WCI  23
$$
MNZ078>079-086>088-094>096-152200-
   Southeast Minnesota

CITY           SKY/WX    TMP DP  RH WIND       PRES   REMARKS
ROCHESTER      SUNNY     24  19  81 S3        30.25S
RED WING       SUNNY     27  16  63 SE6       30.26F WCI  20
STANTON        SUNNY     33  23  67 S6        30.23F WCI  27
DODGE CENTER   SUNNY     27  19  74 CALM      30.23S
WINONA         SUNNY     28  18  64 SE3       30.31S
AUSTIN         SUNNY    N/A N/A N/A S5        30.24F
PRESTON        CLOUDY    24  18  75 S7        30.26S WCI  16
$$
ABBREVIATIONS USED IN REMARKS
   TC - TEMPERATURES IN CELSIUS
  WCI - WIND CHILL INDEX
   HX - HEAT INDEX
  VSB - VISIBILITY
$$




USA.gov is the U.S. government's official web portal to all federal, state and local government web resources and services.